| time (UTC) | temp F | wind direction | speed knots | gust knots | rain 1hr in | rain 24hr in | rain mn in | humidity % | barometer mb |
| 20260506203439 | 64 | 359 | 0.0 | 0.0 | 0.00 | 1.40 | 0.00 | 76 | 1013.4 |
| 20260506202939 | 64 | 359 | 0.0 | 0.0 | 0.00 | 1.40 | 0.00 | 76 | 1013.4 |
| 20260506202442 | 64 | 359 | 0.0 | 0.0 | 0.00 | 1.40 | 0.00 | 76 | 1013.3 |
| 20260506201939 | 64 | 359 | 0.0 | 0.0 | 0.00 | 1.40 | 0.00 | 76 | 1013.4 |
| 20260506201442 | 64 | 359 | 0.0 | 0.0 | 0.00 | 1.40 | 0.00 | 76 | 1013.4 |
| 20260506200939 | 64 | 359 | 0.0 | 0.0 | 0.00 | 1.40 | 0.00 | 76 | 1013.3 |
| 20260506200439 | 64 | 359 | 0.0 | 0.0 | 0.00 | 1.40 | 0.00 | 76 | 1013.2 |
| 20260506195942 | 64 | 359 | 0.0 | 0.0 | 0.00 | 1.40 | 0.00 | 76 | 1013.0 |
| 20260506195442 | 64 | 359 | 0.0 | 0.0 | 0.00 | 1.40 | 0.00 | 76 | 1013.0 |
| 20260506194939 | 64 | 359 | 0.0 | 0.0 | 0.00 | 1.40 | 0.00 | 76 | 1012.9 |
| 20260506194439 | 64 | 359 | 0.0 | 0.0 | 0.00 | 1.40 | 0.00 | 76 | 1012.8 |
| 20260506193939 | 64 | 359 | 0.0 | 0.0 | 0.00 | 1.40 | 0.00 | 76 | 1012.8 |
| 20260506193442 | 64 | 359 | 0.0 | 0.0 | 0.00 | 1.40 | 0.00 | 76 | 1012.8 |
| 20260506192939 | 64 | 359 | 0.0 | 0.0 | 0.00 | 1.40 | 0.00 | 77 | 1012.7 |
| 20260506192439 | 64 | 359 | 0.0 | 0.0 | 0.00 | 1.40 | 0.00 | 77 | 1012.7 |
| 20260506191945 | 64 | 359 | 0.0 | 0.0 | 0.00 | 1.40 | 0.00 | 77 | 1012.6 |
| 20260506191439 | 64 | 359 | 0.0 | 0.0 | 0.00 | 1.40 | 0.00 | 77 | 1012.6 |
| 20260506190945 | 64 | 359 | 0.0 | 0.0 | 0.00 | 1.40 | 0.00 | 78 | 1012.6 |
| 20260506190448 | 64 | 359 | 0.0 | 0.0 | 0.00 | 1.40 | 0.00 | 78 | 1012.4 |
| 20260506185939 | 64 | 359 | 0.0 | 0.0 | 0.00 | 1.40 | 0.00 | 78 | 1012.3 |
| 20260506185439 | 64 | 359 | 0.0 | 0.0 | 0.00 | 1.40 | 0.00 | 78 | 1012.3 |
| 20260506184939 | 64 | 359 | 0.0 | 0.0 | 0.00 | 1.40 | 0.00 | 78 | 1012.2 |
| 20260506184439 | 64 | 359 | 0.0 | 0.0 | 0.00 | 1.40 | 0.00 | 78 | 1012.2 |
| 20260506183939 | 64 | 359 | 0.0 | 0.0 | 0.00 | 1.40 | 0.00 | 78 | 1012.1 |
| 20260506183439 | 64 | 359 | 0.0 | 0.0 | 0.00 | 1.40 | 0.00 | 78 | 1012.1 |
| 20260506182939 | 64 | 359 | 0.0 | 0.0 | 0.00 | 1.40 | 0.00 | 78 | 1012.0 |
| 20260506182439 | 64 | 359 | 0.0 | 0.0 | 0.00 | 1.40 | 0.00 | 79 | 1011.9 |
| 20260506181942 | 64 | 359 | 0.0 | 0.0 | 0.00 | 1.40 | 0.00 | 79 | 1011.8 |
| 20260506181439 | 64 | 359 | 0.0 | 0.0 | 0.00 | 1.40 | 0.00 | 80 | 1011.8 |
| 20260506180942 | 64 | 359 | 0.0 | 0.0 | 0.00 | 1.40 | 0.00 | 80 | 1011.6 |
| 20260506180442 | 64 | 359 | 0.0 | 0.0 | 0.00 | 1.40 | 0.00 | 80 | 1011.5 |
| 20260506175942 | 64 | 359 | 0.0 | 0.0 | 0.00 | 1.40 | 0.00 | 80 | 1011.5 |
| 20260506175439 | 64 | 359 | 0.0 | 0.0 | 0.00 | 1.40 | 0.00 | 80 | 1011.5 |
| 20260506174945 | 64 | 359 | 0.0 | 0.0 | 0.00 | 1.40 | 0.00 | 79 | 1011.5 |
| 20260506174439 | 64 | 359 | 0.0 | 0.0 | 0.00 | 1.40 | 0.00 | 79 | 1011.5 |
| 20260506173945 | 64 | 359 | 0.0 | 0.0 | 0.00 | 1.40 | 0.00 | 79 | 1011.5 |
| 20260506173442 | 64 | 359 | 0.0 | 0.0 | 0.00 | 1.40 | 0.00 | 79 | 1011.4 |
| 20260506172942 | 64 | 359 | 0.0 | 0.0 | 0.00 | 1.40 | 0.00 | 78 | 1011.5 |
| 20260506172439 | 64 | 359 | 0.0 | 0.0 | 0.00 | 1.40 | 0.00 | 78 | 1011.4 |
| 20260506171942 | 64 | 359 | 0.0 | 0.0 | 0.00 | 1.40 | 0.00 | 78 | 1011.4 |
| 20260506171439 | 65 | 359 | 0.0 | 0.0 | 0.00 | 1.40 | 0.00 | 78 | 1011.4 |
| 20260506170939 | 65 | 359 | 0.0 | 0.0 | 0.00 | 1.40 | 0.00 | 78 | 1011.3 |
| 20260506170442 | 65 | 359 | 0.0 | 0.0 | 0.00 | 1.40 | 0.00 | 77 | 1011.4 |
| 20260506165942 | 65 | 359 | 0.0 | 0.0 | 0.00 | 1.40 | 0.00 | 76 | 1011.4 |
| 20260506165442 | 65 | 359 | 0.0 | 0.0 | 0.00 | 1.40 | 0.00 | 76 | 1011.3 |
| 20260506164939 | 65 | 359 | 0.0 | 0.0 | 0.00 | 1.40 | 0.00 | 75 | 1011.3 |
| 20260506164442 | 65 | 359 | 0.0 | 0.0 | 0.00 | 1.40 | 0.00 | 75 | 1011.4 |
| 20260506163939 | 65 | 191 | 0.0 | 0.0 | 0.00 | 1.40 | 0.00 | 74 | 1011.4 |
| 20260506163442 | 66 | 226 | 0.0 | 0.0 | 0.00 | 1.40 | 0.00 | 74 | 1011.4 |
| 20260506162939 | 66 | 359 | 0.0 | 0.0 | 0.00 | 1.40 | 0.00 | 74 | 1011.4 |
| 20260506162443 | 66 | 359 | 0.0 | 0.0 | 0.00 | 1.40 | 0.00 | 75 | 1011.4 |
| 20260506161942 | 66 | 211 | 0.0 | 0.0 | 0.00 | 1.40 | 0.00 | 75 | 1011.3 |
| 20260506161439 | 66 | 359 | 0.0 | 0.0 | 0.00 | 1.40 | 0.00 | 75 | 1011.4 |
| 20260506160939 | 66 | 121 | 0.0 | 0.0 | 0.00 | 1.40 | 0.00 | 76 | 1011.3 |
| 20260506160445 | 66 | 359 | 0.0 | 0.0 | 0.00 | 1.40 | 0.00 | 77 | 1011.3 |
| 20260506155939 | 66 | 206 | 0.0 | 0.0 | 0.00 | 1.40 | 0.00 | 78 | 1011.3 |
| 20260506155439 | 66 | 359 | 0.0 | 0.0 | 0.00 | 1.40 | 0.00 | 78 | 1011.3 |
| 20260506154943 | 66 | 359 | 0.0 | 0.0 | 0.00 | 1.40 | 0.00 | 77 | 1011.2 |
| 20260506154445 | 66 | 218 | 0.0 | 0.0 | 0.00 | 1.40 | 0.00 | 76 | 1011.2 |
| 20260506153943 | 66 | 201 | 0.0 | 0.0 | 0.00 | 1.40 | 0.00 | 76 | 1011.3 |
| 20260506153445 | 66 | 359 | 0.0 | 0.0 | 0.00 | 1.40 | 0.00 | 76 | 1011.1 |
| 20260506152939 | 67 | 359 | 0.0 | 0.0 | 0.00 | 1.40 | 0.00 | 76 | 1011.2 |
| 20260506152445 | 67 | 359 | 0.0 | 0.0 | 0.00 | 1.40 | 0.00 | 77 | 1011.2 |
| 20260506151940 | 67 | 359 | 0.0 | 0.0 | 0.00 | 1.40 | 0.00 | 76 | 1011.2 |
| 20260506151440 | 67 | 170 | 0.0 | 0.0 | 0.00 | 1.40 | 0.00 | 75 | 1011.2 |
| 20260506150940 | 67 | 246 | 0.0 | 0.0 | 0.00 | 1.40 | 0.00 | 75 | 1011.2 |
| 20260506150443 | 67 | 180 | 0.0 | 0.0 | 0.00 | 1.40 | 0.00 | 75 | 1011.2 |
| 20260506145940 | 67 | 200 | 0.0 | 0.0 | 0.00 | 1.40 | 0.00 | 76 | 1011.2 |
| 20260506145446 | 67 | 196 | 0.0 | 0.0 | 0.00 | 1.40 | 0.00 | 75 | 1011.2 |
| 20260506144940 | 68 | 359 | 0.0 | 0.0 | 0.00 | 1.40 | 0.00 | 74 | 1011.1 |
| 20260506144440 | 68 | 201 | 0.0 | 0.0 | 0.00 | 1.40 | 0.00 | 74 | 1011.2 |
| 20260506143940 | 68 | 176 | 0.0 | 0.0 | 0.00 | 1.40 | 0.00 | 75 | 1011.1 |
| 20260506143446 | 67 | 359 | 0.0 | 0.0 | 0.00 | 1.40 | 0.00 | 75 | 1011.1 |
| 20260506142940 | 67 | 145 | 0.0 | 0.0 | 0.00 | 1.40 | 0.00 | 75 | 1011.1 |
| 20260506142440 | 67 | 154 | 0.0 | 0.0 | 0.00 | 1.40 | 0.00 | 75 | 1011.1 |
| 20260506141940 | 67 | 186 | 0.0 | 0.0 | 0.00 | 1.40 | 0.00 | 74 | 1011.2 |
| 20260506141443 | 67 | 193 | 0.0 | 0.0 | 0.00 | 1.40 | 0.00 | 75 | 1011.2 |
| 20260506140943 | 67 | 195 | 0.0 | 0.0 | 0.00 | 1.40 | 0.00 | 74 | 1011.2 |
| 20260506140443 | 67 | 218 | 0.0 | 0.0 | 0.00 | 1.40 | 0.00 | 75 | 1011.2 |
| 20260506135946 | 67 | 194 | 0.0 | 0.0 | 0.00 | 1.40 | 0.00 | 75 | 1011.2 |
| 20260506135443 | 67 | 359 | 0.0 | 0.0 | 0.00 | 1.40 | 0.00 | 75 | 1011.3 |
| 20260506134940 | 67 | 196 | 0.0 | 0.0 | 0.00 | 1.40 | 0.00 | 73 | 1011.3 |
| 20260506134440 | 67 | 327 | 0.0 | 0.0 | 0.00 | 1.40 | 0.00 | 74 | 1011.4 |
| 20260506133943 | 67 | 152 | 0.0 | 0.0 | 0.00 | 1.40 | 0.00 | 73 | 1011.4 |
| 20260506133440 | 67 | 359 | 0.0 | 0.0 | 0.00 | 1.40 | 0.00 | 73 | 1011.4 |
| 20260506132946 | 67 | 242 | 0.0 | 0.0 | 0.00 | 1.40 | 0.00 | 73 | 1011.4 |
| 20260506132443 | 67 | 185 | 0.0 | 0.0 | 0.00 | 1.40 | 0.00 | 74 | 1011.5 |
| 20260506131943 | 67 | 206 | 0.0 | 0.0 | 0.00 | 1.40 | 0.00 | 74 | 1011.4 |
| 20260506131443 | 67 | 202 | 0.0 | 0.0 | 0.00 | 1.40 | 0.00 | 74 | 1011.4 |
| 20260506130940 | 67 | 227 | 0.0 | 0.0 | 0.00 | 1.40 | 0.00 | 76 | 1011.3 |
| 20260506130443 | 67 | 158 | 0.0 | 0.0 | 0.00 | 1.40 | 0.00 | 76 | 1011.3 |
| 20260506125940 | 67 | 224 | 0.0 | 0.0 | 0.00 | 1.40 | 0.00 | 77 | 1011.3 |
| 20260506125440 | 67 | 190 | 0.0 | 0.0 | 0.00 | 1.40 | 0.00 | 77 | 1011.3 |
| 20260506124940 | 67 | 359 | 0.0 | 0.0 | 0.00 | 1.40 | 0.00 | 77 | 1011.3 |
| 20260506124440 | 67 | 359 | 0.0 | 0.0 | 0.00 | 1.40 | 0.00 | 78 | 1011.3 |
| 20260506123943 | 67 | 206 | 0.0 | 0.0 | 0.00 | 1.40 | 0.00 | 78 | 1011.3 |
| 20260506123440 | 67 | 162 | 0.0 | 0.0 | 0.00 | 1.40 | 0.00 | 78 | 1011.2 |
| 20260506122943 | 67 | 176 | 0.0 | 0.0 | 0.00 | 1.40 | 0.00 | 79 | 1011.2 |
| 20260506122443 | 67 | 228 | 0.0 | 0.0 | 0.00 | 1.40 | 0.00 | 79 | 1011.1 |
| 20260506121940 | 67 | 202 | 0.0 | 0.0 | 0.00 | 1.40 | 0.00 | 79 | 1011.1 |
| 20260506121443 | 67 | 359 | 0.0 | 0.0 | 0.00 | 1.40 | 0.00 | 81 | 1011.0 |
| 20260506120940 | 67 | 170 | 0.0 | 0.0 | 0.00 | 1.40 | 0.00 | 81 | 1010.9 |
| 20260506120443 | 67 | 152 | 0.0 | 0.0 | 0.00 | 1.40 | 0.00 | 81 | 1010.9 |
| 20260506115940 | 67 | 158 | 0.0 | 0.0 | 0.00 | 1.40 | 0.00 | 81 | 1011.0 |
| 20260506115440 | 67 | 195 | 0.0 | 0.0 | 0.00 | 1.40 | 0.00 | 81 | 1010.9 |
| 20260506114949 | 67 | 179 | 0.0 | 0.0 | 0.00 | 1.40 | 0.00 | 82 | 1011.0 |
| 20260506114443 | 67 | 199 | 0.0 | 0.0 | 0.00 | 1.40 | 0.00 | 81 | 1011.0 |
| 20260506113940 | 67 | 169 | 0.0 | 0.0 | 0.00 | 1.40 | 0.00 | 82 | 1011.0 |
| 20260506113443 | 66 | 186 | 0.0 | 0.0 | 0.00 | 1.40 | 0.00 | 83 | 1011.0 |
| 20260506112946 | 66 | 210 | 0.0 | 0.0 | 0.00 | 1.40 | 0.00 | 84 | 1010.9 |
| 20260506112443 | 66 | 170 | 0.0 | 0.0 | 0.00 | 1.40 | 0.00 | 83 | 1010.9 |
| 20260506111940 | 66 | 207 | 0.0 | 0.0 | 0.00 | 1.40 | 0.00 | 83 | 1011.0 |
| 20260506111443 | 66 | 182 | 0.0 | 0.0 | 0.00 | 1.40 | 0.00 | 82 | 1011.0 |
| 20260506110946 | 66 | 239 | 0.0 | 0.0 | 0.00 | 1.40 | 0.00 | 83 | 1011.0 |
| 20260506110443 | 66 | 122 | 0.0 | 0.0 | 0.00 | 1.40 | 0.00 | 82 | 1011.1 |
| 20260506105943 | 66 | 359 | 0.0 | 0.0 | 0.00 | 1.40 | 0.00 | 82 | 1011.1 |
| 20260506105440 | 66 | 172 | 0.0 | 0.0 | 0.00 | 1.40 | 0.00 | 82 | 1011.0 |
| 20260506104940 | 66 | 178 | 0.0 | 0.0 | 0.00 | 1.40 | 0.00 | 81 | 1011.0 |
| 20260506104440 | 66 | 141 | 0.0 | 0.0 | 0.00 | 1.40 | 0.00 | 81 | 1011.0 |
| 20260506103943 | 66 | 359 | 0.0 | 0.0 | 0.00 | 1.40 | 0.00 | 81 | 1011.0 |
| 20260506103440 | 67 | 167 | 0.0 | 0.0 | 0.00 | 1.40 | 0.00 | 80 | 1011.0 |
| 20260506102940 | 67 | 204 | 0.0 | 0.0 | 0.00 | 1.40 | 0.00 | 80 | 1010.9 |
| 20260506102440 | 67 | 225 | 0.0 | 0.0 | 0.00 | 1.40 | 0.00 | 80 | 1010.9 |
| 20260506101940 | 67 | 223 | 0.0 | 0.0 | 0.00 | 1.40 | 0.00 | 81 | 1010.8 |
| 20260506101443 | 66 | 245 | 0.0 | 0.0 | 0.00 | 1.40 | 0.00 | 81 | 1010.8 |
| 20260506100943 | 66 | 191 | 0.0 | 0.0 | 0.00 | 1.40 | 0.00 | 81 | 1010.9 |
| 20260506100440 | 66 | 214 | 0.0 | 0.0 | 0.00 | 1.40 | 0.00 | 81 | 1010.9 |
| 20260506095940 | 66 | 175 | 0.0 | 0.0 | 0.00 | 1.40 | 0.00 | 81 | 1010.9 |
| 20260506095440 | 66 | 250 | 0.0 | 0.0 | 0.00 | 1.40 | 0.00 | 81 | 1010.9 |
| 20260506094940 | 65 | 220 | 0.0 | 0.0 | 0.00 | 1.40 | 0.00 | 81 | 1010.8 |
| 20260506094440 | 65 | 186 | 0.0 | 0.0 | 0.00 | 1.40 | 0.00 | 81 | 1010.9 |
| 20260506093940 | 65 | 199 | 0.0 | 0.0 | 0.00 | 1.41 | 0.00 | 81 | 1010.9 |
| 20260506093443 | 65 | 235 | 0.0 | 0.0 | 0.00 | 1.41 | 0.00 | 82 | 1010.8 |
| 20260506092946 | 65 | 190 | 0.0 | 0.0 | 0.00 | 1.41 | 0.00 | 81 | 1010.8 |
| 20260506092446 | 65 | 359 | 0.0 | 0.0 | 0.00 | 1.41 | 0.00 | 82 | 1010.6 |
| 20260506091940 | 64 | 182 | 0.0 | 0.0 | 0.00 | 1.41 | 0.00 | 82 | 1010.7 |
| 20260506091443 | 64 | 171 | 0.0 | 0.0 | 0.00 | 1.41 | 0.00 | 83 | 1010.7 |
| 20260506090940 | 64 | 249 | 0.0 | 0.0 | 0.00 | 1.41 | 0.00 | 83 | 1010.6 |
| 20260506090440 | 64 | 203 | 0.0 | 0.0 | 0.00 | 1.41 | 0.00 | 83 | 1010.6 |
| 20260506085940 | 64 | 201 | 0.0 | 0.0 | 0.00 | 1.41 | 0.00 | 83 | 1010.5 |
| 20260506085443 | 64 | 183 | 0.0 | 0.0 | 0.00 | 1.41 | 0.00 | 85 | 1010.5 |
| 20260506084940 | 64 | 220 | 0.0 | 0.0 | 0.00 | 1.41 | 0.00 | 86 | 1010.3 |
| 20260506084440 | 63 | 208 | 0.0 | 0.0 | 0.00 | 1.41 | 0.00 | 87 | 1010.3 |
| 20260506083943 | 63 | 195 | 0.0 | 0.0 | 0.00 | 1.41 | 0.00 | 88 | 1010.2 |
| 20260506083446 | 63 | 233 | 0.0 | 0.0 | 0.00 | 1.41 | 0.00 | 89 | 1010.2 |
| 20260506082946 | 63 | 245 | 0.0 | 0.0 | 0.00 | 1.41 | 0.00 | 90 | 1010.1 |
| 20260506082440 | 63 | 187 | 0.0 | 0.0 | 0.00 | 1.41 | 0.00 | 90 | 1010.1 |
| 20260506081940 | 63 | 185 | 0.0 | 0.0 | 0.00 | 1.41 | 0.00 | 90 | 1010.0 |
| 20260506081440 | 63 | 192 | 0.0 | 0.0 | 0.00 | 1.41 | 0.00 | 91 | 1010.0 |
| 20260506080940 | 63 | 147 | 0.0 | 0.0 | 0.00 | 1.41 | 0.00 | 91 | 1010.1 |
| 20260506080440 | 63 | 198 | 0.0 | 0.0 | 0.00 | 1.41 | 0.00 | 92 | 1010.1 |
| 20260506073440 | 64 | 197 | 0.0 | 0.0 | 0.18 | 1.41 | 0.00 | 92 | 1010.0 |
| 20260506072940 | 64 | 157 | 0.0 | 0.0 | 0.18 | 1.41 | 0.00 | 92 | 1010.0 |
| 20260506072440 | 64 | 189 | 0.0 | 0.0 | 0.18 | 1.41 | 0.00 | 92 | 1009.9 |
| 20260506071943 | 64 | 180 | 0.0 | 0.0 | 0.18 | 1.41 | 0.00 | 92 | 1009.8 |
| 20260506071446 | 64 | 213 | 0.0 | 0.0 | 0.18 | 1.41 | 0.00 | 92 | 1009.7 |
| 20260506070946 | 64 | 222 | 0.0 | 0.0 | 0.18 | 1.41 | 0.00 | 92 | 1009.7 |
| 20260506070446 | 64 | 197 | 0.0 | 0.0 | 0.18 | 1.41 | 0.00 | 92 | 1009.6 |
| 20260506062446 | 62 | 285 | 0.0 | 0.0 | 0.00 | 1.25 | 0.00 | 91 | 1009.2 |
| 20260506061946 | 62 | 309 | 0.0 | 0.0 | 0.00 | 1.26 | 0.00 | 91 | 1009.3 |
| 20260506061440 | 62 | 305 | 0.0 | 0.0 | 0.00 | 1.27 | 0.00 | 91 | 1009.2 |
| 20260506060943 | 61 | 51 | 0.0 | 0.0 | 0.00 | 1.30 | 0.00 | 91 | 1009.2 |
| 20260506060440 | 61 | 36 | 0.0 | 0.0 | 0.00 | 1.33 | 0.00 | 90 | 1009.3 |
| 20260506050946 | 59 | 16 | 0.0 | 0.0 | 0.02 | 1.71 | 0.00 | 90 | 1009.7 |
| 20260506050443 | 59 | 81 | 0.0 | 0.0 | 0.02 | 1.72 | 0.00 | 90 | 1009.6 |
| 20260506044941 | 58 | 14 | 0.0 | 0.0 | 0.02 | 1.78 | 0.00 | 89 | 1009.5 |
| 20260506044441 | 58 | 10 | 0.0 | 0.0 | 0.02 | 1.81 | 0.00 | 89 | 1009.6 |
| 20260506043940 | 58 | 359 | 0.0 | 0.0 | 0.02 | 1.85 | 0.00 | 89 | 1009.6 |
| 20260506043444 | 58 | 9 | 0.0 | 0.0 | 0.02 | 1.90 | 0.00 | 89 | 1009.8 |
| 20260506042947 | 59 | 33 | 0.0 | 0.0 | 0.02 | 1.95 | 0.00 | 88 | 1009.9 |
| 20260506042444 | 59 | 45 | 0.0 | 0.0 | 0.01 | 1.99 | 0.00 | 88 | 1009.9 |
| 20260506041944 | 59 | 348 | 0.0 | 0.0 | 0.01 | 2.04 | 0.00 | 88 | 1009.9 |
| 20260506041441 | 59 | 41 | 0.0 | 0.0 | 0.00 | 2.10 | 0.00 | 87 | 1010.3 |
| 20260506040941 | 59 | 41 | 0.0 | 0.0 | 0.00 | 2.13 | 0.00 | 87 | 1010.7 |
| 20260506040441 | 59 | 41 | 0.0 | 0.0 | 0.00 | 2.18 | 0.00 | 86 | 1010.6 |
| 20260506035944 | 59 | 60 | 0.0 | 0.0 | 0.00 | 2.29 | 0.00 | 86 | 1010.5 |
| 20260506035444 | 59 | 27 | 0.0 | 0.0 | 0.00 | 2.32 | 0.00 | 86 | 1010.4 |
| 20260506034941 | 59 | 18 | 0.0 | 0.0 | 0.00 | 2.33 | 0.00 | 86 | 1010.4 |
| 20260506034447 | 59 | 349 | 0.0 | 0.0 | 0.00 | 2.36 | 0.00 | 86 | 1010.0 |
| 20260506033944 | 59 | 9 | 0.0 | 0.0 | 0.02 | 2.38 | 0.00 | 87 | 1009.9 |
| 20260506033441 | 59 | 25 | 0.0 | 0.0 | 0.03 | 2.39 | 0.00 | 88 | 1009.9 |
| 20260506032950 | 59 | 25 | 0.0 | 0.0 | 0.03 | 2.41 | 0.00 | 88 | 1010.0 |
| 20260506032441 | 58 | 8 | 0.0 | 0.0 | 0.04 | 2.44 | 0.00 | 89 | 1009.9 |
| 20260506031947 | 58 | 16 | 0.0 | 0.0 | 0.04 | 2.47 | 0.00 | 89 | 1009.9 |
| 20260506031441 | 58 | 37 | 0.0 | 0.0 | 0.04 | 2.49 | 0.00 | 90 | 1009.9 |
| 20260506030941 | 58 | 35 | 0.0 | 0.0 | 0.06 | 2.52 | 0.00 | 90 | 1010.1 |
| 20260506030444 | 58 | 15 | 0.0 | 0.0 | 0.11 | 2.55 | 0.00 | 90 | 1010.4 |
| 20260506025947 | 58 | 20 | 0.0 | 0.0 | 0.21 | 2.55 | 0.00 | 90 | 1010.5 |
| 20260506025444 | 58 | 39 | 0.0 | 0.0 | 0.29 | 2.56 | 0.00 | 91 | 1010.6 |
| 20260506024944 | 58 | 18 | 0.0 | 0.0 | 0.34 | 2.58 | 0.00 | 91 | 1010.7 |
| 20260506024447 | 58 | 345 | 0.0 | 0.0 | 0.36 | 2.58 | 0.00 | 91 | 1010.8 |
| 20260506023941 | 58 | 27 | 0.0 | 0.0 | 0.40 | 2.57 | 0.00 | 91 | 1011.0 |
| 20260506023441 | 58 | 74 | 0.0 | 0.0 | 0.50 | 2.58 | 0.00 | 91 | 1011.1 |
| 20260506022941 | 58 | 359 | 0.0 | 0.0 | 0.59 | 2.59 | 0.00 | 91 | 1011.1 |
| 20260506022441 | 58 | 12 | 0.0 | 0.0 | 0.82 | 2.59 | 0.00 | 91 | 1011.3 |
| 20260506021947 | 58 | 27 | 0.0 | 0.0 | 0.87 | 2.60 | 0.00 | 90 | 1011.3 |
| 20260506021441 | 58 | 35 | 0.0 | 0.0 | 0.92 | 2.61 | 0.00 | 90 | 1011.3 |
| 20260506020941 | 58 | 31 | 0.0 | 0.0 | 0.93 | 2.61 | 0.00 | 91 | 1011.4 |
| 20260506020444 | 58 | 359 | 0.0 | 0.0 | 0.90 | 2.57 | 0.00 | 91 | 1011.4 |
| 20260506015938 | 58 | 345 | 0.0 | 0.0 | 0.81 | 2.48 | 0.00 | 91 | 1011.6 |
| 20260506015438 | 58 | 359 | 0.0 | 0.0 | 0.75 | 2.40 | 0.00 | 91 | 1011.9 |
| 20260506014941 | 58 | 359 | 0.0 | 0.0 | 0.70 | 2.36 | 0.00 | 91 | 1012.2 |
| 20260506014438 | 58 | 359 | 0.0 | 0.0 | 0.70 | 2.35 | 0.00 | 90 | 1012.2 |
| 20260506013944 | 59 | 359 | 0.0 | 0.0 | 0.64 | 2.29 | 0.00 | 89 | 1012.2 |
| 20260506013438 | 61 | 337 | 0.0 | 0.0 | 0.58 | 2.19 | 0.00 | 90 | 1012.7 |
| 20260506012938 | 61 | 214 | 0.0 | 0.0 | 0.49 | 2.10 | 0.00 | 90 | 1012.6 |
| 20260506012438 | 61 | 212 | 0.0 | 0.0 | 0.28 | 1.87 | 0.00 | 90 | 1012.3 |
| 20260506011944 | 61 | 274 | 0.0 | 0.0 | 0.27 | 1.83 | 0.00 | 90 | 1012.0 |
| 20260506011438 | 61 | 283 | 0.0 | 0.0 | 0.22 | 1.78 | 0.00 | 91 | 1011.9 |
| 20260506010938 | 61 | 287 | 0.0 | 0.0 | 0.19 | 1.77 | 0.00 | 90 | 1011.9 |
| 20260506010441 | 61 | 359 | 0.0 | 0.0 | 0.18 | 1.75 | 0.00 | 90 | 1011.9 |
| 20260506005941 | 62 | 359 | 0.0 | 0.0 | 0.17 | 1.76 | 0.00 | 90 | 1011.9 |
| 20260506005441 | 62 | 359 | 0.0 | 0.0 | 0.14 | 1.74 | 0.00 | 89 | 1011.9 |
| 20260506004944 | 62 | 359 | 0.0 | 0.0 | 0.14 | 1.74 | 0.00 | 89 | 1012.0 |
| 20260506004441 | 62 | 359 | 0.0 | 0.0 | 0.12 | 1.73 | 0.00 | 89 | 1012.1 |
| 20260506003941 | 62 | 359 | 0.0 | 0.0 | 0.12 | 1.73 | 0.00 | 89 | 1012.2 |
| 20260506003438 | 62 | 359 | 0.0 | 0.0 | 0.07 | 1.68 | 0.00 | 89 | 1011.8 |
| 20260506002938 | 62 | 359 | 0.0 | 0.0 | 0.06 | 1.66 | 0.00 | 89 | 1011.8 |
| 20260506002438 | 63 | 359 | 0.0 | 0.0 | 0.03 | 1.64 | 0.00 | 89 | 1011.7 |
| 20260506001938 | 63 | 359 | 0.0 | 0.0 | 0.00 | 1.60 | 0.00 | 89 | 1011.7 |
| 20260506001441 | 63 | 359 | 0.0 | 0.0 | 0.00 | 1.60 | 0.00 | 88 | 1011.7 |
| 20260506000941 | 63 | 359 | 0.0 | 0.0 | 0.00 | 1.60 | 0.00 | 88 | 1011.8 |
| 20260506000441 | 63 | 359 | 0.0 | 0.0 | 0.00 | 1.60 | 0.00 | 87 | 1011.9 |
| 20260505235938 | 63 | 359 | 0.0 | 0.0 | 0.00 | 1.60 | 0.00 | 87 | 1012.1 |
| 20260505235444 | 63 | 359 | 0.0 | 0.0 | 0.00 | 1.60 | 0.00 | 87 | 1012.0 |
| 20260505234938 | 63 | 359 | 0.0 | 0.0 | 0.00 | 1.60 | 0.00 | 87 | 1012.2 |
| 20260505234441 | 63 | 359 | 0.0 | 0.0 | 0.00 | 1.60 | 0.00 | 87 | 1012.5 |
| 20260505233938 | 63 | 359 | 0.0 | 0.0 | 0.00 | 1.60 | 0.00 | 87 | 1012.7 |
| 20260505233444 | 63 | 359 | 0.0 | 0.0 | 0.00 | 1.60 | 0.00 | 86 | 1012.7 |
| 20260505232938 | 63 | 359 | 0.0 | 0.0 | 0.00 | 1.60 | 0.00 | 85 | 1012.8 |
| 20260505232438 | 63 | 359 | 0.0 | 0.0 | 0.00 | 1.60 | 0.00 | 85 | 1012.8 |
| 20260505231938 | 63 | 359 | 0.0 | 0.0 | 0.00 | 1.60 | 0.00 | 85 | 1012.9 |
| 20260505231444 | 63 | 359 | 0.0 | 0.0 | 0.00 | 1.60 | 0.00 | 85 | 1013.0 |
| 20260505230938 | 63 | 359 | 0.0 | 0.0 | 0.00 | 1.60 | 0.00 | 85 | 1013.1 |
| 20260505230438 | 63 | 220 | 0.0 | 0.0 | 0.00 | 1.60 | 0.00 | 85 | 1013.2 |
| 20260505225941 | 63 | 220 | 0.0 | 0.0 | 0.00 | 1.60 | 0.00 | 85 | 1013.1 |
| 20260505225441 | 63 | 359 | 0.0 | 0.0 | 0.00 | 1.60 | 0.00 | 85 | 1013.1 |
| 20260505224938 | 63 | 359 | 0.0 | 0.0 | 0.00 | 1.60 | 0.00 | 85 | 1013.2 |
| 20260505224438 | 63 | 359 | 0.0 | 0.0 | 0.00 | 1.60 | 0.00 | 85 | 1013.3 |
| 20260505223938 | 64 | 359 | 0.0 | 0.0 | 0.00 | 1.60 | 0.00 | 85 | 1013.4 |
| 20260505223441 | 64 | 359 | 0.0 | 0.0 | 0.00 | 1.60 | 0.00 | 85 | 1013.5 |
| 20260505222941 | 64 | 193 | 0.0 | 0.0 | 0.00 | 1.60 | 0.00 | 85 | 1013.5 |
| 20260505222438 | 64 | 191 | 0.0 | 0.0 | 0.00 | 1.60 | 0.00 | 85 | 1013.6 |
| 20260505221944 | 64 | 233 | 0.0 | 0.0 | 0.00 | 1.60 | 0.00 | 85 | 1013.7 |
| 20260505221438 | 64 | 359 | 0.0 | 0.0 | 0.00 | 1.60 | 0.00 | 85 | 1013.5 |
| 20260505220941 | 64 | 359 | 0.0 | 0.0 | 0.00 | 1.60 | 0.00 | 85 | 1013.4 |
| 20260505220438 | 64 | 359 | 0.0 | 0.0 | 0.00 | 1.60 | 0.00 | 85 | 1013.4 |
| 20260505215941 | 64 | 236 | 0.0 | 0.0 | 0.00 | 1.60 | 0.00 | 85 | 1013.5 |
| 20260505215447 | 64 | 359 | 0.0 | 0.0 | 0.00 | 1.60 | 0.00 | 85 | 1013.6 |
| 20260505214941 | 64 | 359 | 0.0 | 0.0 | 0.00 | 1.60 | 0.00 | 85 | 1013.5 |
| 20260505214441 | 64 | 235 | 0.0 | 0.0 | 0.00 | 1.60 | 0.00 | 85 | 1013.7 |
| 20260505213941 | 64 | 359 | 0.0 | 0.0 | 0.00 | 1.60 | 0.00 | 85 | 1013.7 |
| 20260505213441 | 64 | 359 | 0.0 | 0.0 | 0.00 | 1.60 | 0.00 | 85 | 1013.8 |
| 20260505212938 | 64 | 236 | 0.0 | 0.0 | 0.00 | 1.60 | 0.00 | 85 | 1013.9 |
| 20260505212438 | 64 | 200 | 0.0 | 0.0 | 0.00 | 1.60 | 0.00 | 85 | 1013.7 |
| 20260505211941 | 64 | 359 | 0.0 | 0.0 | 0.00 | 1.60 | 0.00 | 85 | 1013.8 |
| 20260505211438 | 64 | 359 | 0.0 | 0.0 | 0.00 | 1.60 | 0.00 | 85 | 1013.8 |
| 20260505210941 | 64 | 211 | 0.0 | 0.0 | 0.00 | 1.60 | 0.00 | 85 | 1013.8 |
| 20260505210441 | 64 | 359 | 0.0 | 0.0 | 0.00 | 1.60 | 0.00 | 85 | 1014.0 |
| 20260505205938 | 64 | 201 | 0.0 | 0.0 | 0.00 | 1.60 | 0.00 | 85 | 1014.0 |
| 20260505205438 | 64 | 359 | 0.0 | 0.0 | 0.00 | 1.60 | 0.00 | 85 | 1014.0 |
| 20260505204941 | 64 | 220 | 0.0 | 0.0 | 0.00 | 1.60 | 0.00 | 85 | 1014.0 |
| 20260505204438 | 64 | 197 | 0.0 | 0.0 | 0.00 | 1.60 | 0.00 | 85 | 1014.1 |
| 20260505203938 | 64 | 359 | 0.0 | 0.0 | 0.00 | 1.60 | 0.00 | 85 | 1014.2 |